Weather Service Report


962 
ASUS46 KSEW 291410
RWRWA 

WASHINGTON REGIONAL WEATHER ROUNDUP
NATIONAL WEATHER SERVICE SEATTLE WA
700 AM PDT WED JUL 29 2015

NOTE:"FAIR" INDICATES FEW OR NO CLOUDS BELOW 12,000 FEET WITH NO 
SIGNIFICANT WEATHER AND/OR OBSTRUCTIONS TO VISIBILITY.

WAZ505-507>509-291500-
SEATTLE, TACOMA, EVERETT, AND VICINITY
  
CITY           SKY/WX    TMP DP  RH WIND       PRES   REMARKS
EVERETT        SUNNY     61  50  67 N5        30.21R                  
BOEING FIELD   MOSUNNY   64  54  69 CALM      30.19R                  
RENTON         SUNNY     59  53  80 CALM      30.19R                  
SEATAC AIRPORT MOSUNNY   62  55  77 N3        30.20R                  
JBLM-MCCHORD   SUNNY     55  51  89 CALM      30.19R                  
PUYALLUP       FAIR      52  52 100 CALM      30.19S                  
BREMERTON      SUNNY     61  54  77 NE8       30.21F                  
JBLM-FT LEWIS  SUNNY     54  49  85 SE2       30.19R                  
TACOMA NARROWS SUNNY     60  54  80 N3        30.19S                  
$$
 
WAZ001-503-506-510-514-515-291500-
NORTH INTERIOR
  
CITY           SKY/WX    TMP DP  RH WIND       PRES   REMARKS
BELLINGHAM     MOSUNNY   56  54  93 CALM      30.21R                  
FRIDAY HARBOR  SUNNY     54  53  97 CALM      30.21R                  
EASTSOUND      MOSUNNY   55  54  94 CALM      30.19S                  
PORT ANGELES   SUNNY     53  50  89 SE5       30.21R                  
PORT TOWNSEND  FAIR      50  48  93 CALM      30.21R                  
NAS WHIDBEY    PTSUNNY   61  49  64 CALM      30.25R                  
ARLINGTON      SUNNY     54  48  82 CALM      30.22R                  
BURLINGTON     SUNNY     57  55  94 CALM      30.21R                  
$$
 
WAZ020-022-039-040-504-511-512-291500-
SOUTHWEST INTERIOR
  
CITY           SKY/WX    TMP DP  RH WIND       PRES   REMARKS
SHELTON        SUNNY     52  49  89 CALM      30.18R                  
OLYMPIA        SUNNY     55  50  83 CALM      30.19R                  
CHEHALIS       FAIR      55  55 100 CALM      30.19R FOG              
KELSO          SUNNY    N/A N/A N/A CALM      30.18S                  
VANCOUVER      SUNNY     61  52  72 CALM      30.13R                  
SCAPPOOSE, OR  SUNNY     59  52  77 CALM      30.13R                  
PORTLAND, OR   SUNNY     64  55  72 CALM      30.13R                  
$$
 
WAZ021-516-517-291500-
WASHINGTON COAST
  
CITY           SKY/WX    TMP DP  RH WIND       PRES   REMARKS
FORKS          FOG       54  54 100 E3        30.20R VSB<1/4          
HOQUIAM        CLEAR     54  52  93 CALM      30.19R FOG              
ASTORIA, OR    CLEAR     54  53  97 SE5       30.14S                  
$$
 
WAZ019-023-024-040-518-519-291500-
CASCADE MOUNTAINS AND COLUMBIA GORGE
  
CITY           SKY/WX    TMP DP  RH WIND       PRES   REMARKS
TROUTDALE, OR  SUNNY     60  54  80 CALM      30.12R                  
THE DALLES, OR SUNNY     62  46  55 CALM      30.16R                  
$$

WAZ026-027-041>044-520-521-291500-
EAST SLOPES
  
CITY           SKY/WX    TMP DP  RH WIND       PRES   REMARKS
OMAK           MOSUNNY   60  40  47 CALM      30.19R                  
WENATCHEE      SUNNY     66  47  50 W7        30.18R                  
ELLENSBURG     SUNNY     59  44  57 CALM      30.20R                  
YAKIMA         SUNNY     57  42  57 W9        30.18R                  
$$

WAZ028-034-035-291500-
COLUMBIA BASIN
  
CITY           SKY/WX    TMP DP  RH WIND       PRES   REMARKS
EPHRATA        SUNNY     63  39  41 N6        30.17R                  
MOSES LAKE     SUNNY     56  37  49 N5        30.18R                  
PASCO          SUNNY     57  47  69 CALM      30.17R                  
HERMISTON, OR  SUNNY     58  41  53 S3        30.16R                  
$$

WAZ036>038-291500-
NORTHEAST WASHINGTON
  
CITY           SKY/WX    TMP DP  RH WIND       PRES   REMARKS
SPOKANE GEIGER MOSUNNY   60  41  49 SE8       30.22R                  
SPOKANE FELTS  SUNNY     59  45  59 VRB3      30.23R                  
FAIRCHILD AFB  SUNNY     59  40  49 CALM      30.22R                  
COEURDALENE,ID SUNNY     57  46  67 E6        30.23S                  
DEER PARK      SUNNY     54  42  64 CALM      30.22S                  
$$

WAZ029>033-291500-
SOUTHEAST WASHINGTON
  
CITY           SKY/WX    TMP DP  RH WIND       PRES   REMARKS
PULLMAN        SUNNY     62  41  46 E9        30.25R                  
LEWISTON, ID   SUNNY     61  44  53 E6        30.22R                  
WALLA WALLA    SUNNY     68  40  35 E3        30.17R                  
PENDLETON, OR  SUNNY     61  38  42 E6        30.18R                  
$$

Return to Home page


Western Regional Climate Center, wrcc@dri.edu